Satellite: CP4
Catalog number: 31122
Epoch time:      07213.85060358
Element set:    0101
Inclination:      098.0828 deg
RA of node:       285.6496 deg
Eccentricity:    0.0084636
Arg of perigee:   243.1386 deg
Mean anomaly:     116.1120 deg
Mean motion:   14.55022522 rev/day
Decay rate:       5.96e-06 rev/day^2
Epoch rev:           01549
Checksum:              280

Satellite: CP3
Catalog number: 31128
Epoch time:      07213.87611149
Element set:      92
Inclination:      098.0841 deg
RA of node:       285.1456 deg
Eccentricity:    0.0101748
Arg of perigee:   244.3186 deg
Mean anomaly:     114.7473 deg
Mean motion:   14.51851522 rev/day
Decay rate:       -4.9e-07 rev/day^2
Epoch rev:            1545
Checksum:              289

Satellite: LIBERT
Catalog number: 31129
Epoch time:      07214.62782686
Element set:     265
Inclination:      098.0804 deg
RA of node:       285.8755 deg
Eccentricity:    0.0101489
Arg of perigee:   242.4175 deg
Mean anomaly:     116.6616 deg
Mean motion:   14.51945261 rev/day
Decay rate:       3.83e-06 rev/day^2
Epoch rev:            1554
Checksum:              308

/EX
SB KEPS @ AMSAT  $ORB07214.W
Orbital Elements  07214.WEATHER

HR AMSAT ORBITAL ELEMENTS FOR WEATHER SATELLITES
FROM WA5QGD FORT WORTH,TX August 2, 2007
Send Subscribe/unsubscribe to KEPS at 
http://www.amsat.org/mailman/listinfo/keps
BID: ORB07214.W
TO ALL RADIO AMATEURS BT

Satellite: NOAA-10
Catalog number: 16969
Epoch time:      07214.56955319
Element set:     751
Inclination:      098.7444 deg
RA of node:       231.7773 deg
Eccentricity:    0.0013090
Arg of perigee:   035.8596 deg
Mean anomaly:     324.3461 deg
Mean motion:   14.27330954 rev/day
Decay rate:        6.1e-07 rev/day^2
Epoch rev:            8584
Checksum:              321

Satellite: NOAA-11
Catalog number: 19531
Epoch time:      07214.31073032
Element set:     758
Inclination:      098.8127 deg
RA of node:       302.9025 deg
Eccentricity:    0.0010815
Arg of perigee:   259.2642 deg
Mean anomaly:     100.7364 deg
Mean motion:   14.14847320 rev/day
Decay rate:        3.0e-07 rev/day^2
Epoch rev:           97267
Checksum:              275

Satellite: NOAA-12
Catalog number: 21263
Epoch time:      07214.41684696
Element set:     254
Inclination:      098.7526 deg
RA of node:       211.5846 deg
Eccentricity:    0.0012306
Arg of perigee:   338.0382 deg
Mean anomaly:     022.0259 deg
Mean motion:   14.25551466 rev/day
Decay rate:        6.9e-07 rev/day^2
Epoch rev:           84283
Checksum:              299

Satellite: MET-3/5
Catalog number: 21655
Epoch time:      07213.90611155
Element set:    0341
Inclination:      082.5527 deg
RA of node:       330.6398 deg
Eccentricity:    0.0014685
Arg of perigee:   092.3179 deg
Mean anomaly:     267.9626 deg
Mean motion:   13.17011832 rev/day
Decay rate:        5.1e-07 rev/day^2
Epoch rev:           76742
Checksum:              300

Satellite: MET-2/21
Catalog number: 22782
Epoch time:      07213.78289474
Element set:    0894
Inclination:      082.5481 deg
RA of node:       005.7362 deg
Eccentricity:    0.0024046
Arg of perigee:   107.0467 deg
Mean anomaly:     253.3315 deg
Mean motion:   13.83618630 rev/day
Decay rate:       -3.2e-07 rev/day^2
Epoch rev:           70282
Checksum:              298

Satellite: OKEAN-4
Catalog number: 23317
Epoch time:      07213.73907480
Element set:    0332
Inclination:      082.5359 deg
RA of node:       254.0354 deg
Eccentricity:    0.0024083
Arg of perigee:   101.4373 deg
Mean anomaly:     258.9564 deg
Mean motion:   14.82521668 rev/day
Decay rate:        6.1e-07 rev/day^2
Epoch rev:           69080
Checksum:              293

Satellite: NOAA-14
Catalog number: 23455
Epoch time:      07214.79065921
Element set:     739
Inclination:      098.9868 deg
RA of node:       281.2192 deg
Eccentricity:    0.0008795
Arg of perigee:   333.2361 deg
Mean anomaly:     026.8332 deg
Mean motion:   14.13723922 rev/day
Decay rate:        2.0e-08 rev/day^2
Epoch rev:           64922
Checksum:              314

Satellite: SICH-1
Catalog number: 23657
Epoch time:      07214.75663686
Element set:     132
Inclination:      082.5264 deg
RA of node:       034.0299 deg
Eccentricity:    0.0025850
Arg of perigee:   090.0010 deg
Mean anomaly:     270.4155 deg
Mean motion:   14.81505068 rev/day
Decay rate:       2.64e-06 rev/day^2
Epoch rev:           64292
Checksum:              282

Satellite: NOAA-15
Catalog number: 25338
Epoch time:      07214.45490434
Element set:      94
Inclination:      098.5308 deg
RA of node:       209.8368 deg
Eccentricity:    0.0009524
Arg of perigee:   253.5094 deg
Mean anomaly:     106.5051 deg
Mean motion:   14.24658755 rev/day
Decay rate:       1.30e-06 rev/day^2
Epoch rev:           47927
Checksum:              312

Satellite: RESURS
Catalog number: 25394
Epoch time:      07213.94630157
Element set:    0702
Inclination:      098.4358 deg
RA of node:       266.6578 deg
Eccentricity:    0.0002468
Arg of perigee:   060.0212 deg
Mean anomaly:     300.1211 deg
Mean motion:   14.24141934 rev/day
Decay rate:       -2.0e-08 rev/day^2
Epoch rev:           47086
Checksum:              268

Satellite: FENGYUN1
Catalog number: 25730
Epoch time:      07213.48888965
Element set:     189
Inclination:      098.6882 deg
RA of node:       195.6403 deg
Eccentricity:    0.0020869
Arg of perigee:   004.6801 deg
Mean anomaly:     355.4529 deg
Mean motion:   14.07567674 rev/day
Decay rate:        9.0e-07 rev/day^2
Epoch rev:           42384
Checksum:              338

Satellite: OKEAN-0
Catalog number: 25860
Epoch time:      07213.59495361
Element set:     119
Inclination:      097.7318 deg
RA of node:       213.7237 deg
Eccentricity:    0.0000661
Arg of perigee:   095.9440 deg
Mean anomaly:     264.1839 deg
Mean motion:   14.73466176 rev/day
Decay rate:        5.4e-07 rev/day^2
Epoch rev:           43218
Checksum:              307

Satellite: NOAA-16
Catalog number: 26536
Epoch time:      07214.58911899
Element set:     515
Inclination:      099.1188 deg
RA of node:       192.3448 deg
Eccentricity:    0.0011311
Arg of perigee:   047.0164 deg
Mean anomaly:     313.1953 deg
Mean motion:   14.12441613 rev/day
Decay rate:      -1.80e-06 rev/day^2
Epoch rev:           35365
Checksum:              294

Satellite: NOAA-17
Catalog number: 27453
Epoch time:      07214.75629465
Element set:     525
Inclination:      098.5768 deg
RA of node:       282.9367 deg
Eccentricity:    0.0010993
Arg of perigee:   322.3515 deg
Mean anomaly:     037.6898 deg
Mean motion:   14.23897616 rev/day
Decay rate:       -7.9e-07 rev/day^2
Epoch rev:           26534
Checksum:              358

Satellite: NOAA-18
Catalog number: 28654
Epoch time:      07214.76850250
Element set:      60
Inclination:      098.8294 deg
RA of node:       155.2734 deg
Eccentricity:    0.0014976
Arg of perigee:   133.6274 deg
Mean anomaly:     226.6167 deg
Mean motion:   14.11081611 rev/day
Decay rate:       -3.9e-07 rev/day^2
Epoch rev:           11342
Checksum:              296

/EX
SB KEPS @ AMSAT  $ORB07214.M
Orbital Elements  07214.MISC

HR AMSAT ORBITAL ELEMENTS FOR MANNED AND MISCELLANEOUS SATELLITES
FROM WA5QGD FORT WORTH,TX August 2, 2007
Send Subscribe/unsubscribe to KEPS at 
http://www.amsat.org/mailman/listinfo/keps
BID: ORB07214.M
TO ALL RADIO AMATEURS BT

Satellite: HUBBLE
Catalog number: 20580
Epoch time:      07213.44423882
Element set:    0933
Inclination:      028.4684 deg
RA of node:       254.9995 deg
Eccentricity:    0.0003879
Arg of perigee:   214.3994 deg
Mean anomaly:     145.6346 deg
Mean motion:   15.00265041 rev/day
Decay rate:       3.12e-06 rev/day^2
Epoch rev:           74676
Checksum:              310

Satellite: UARS
Catalog number: 21701
Epoch time:      07213.92349786
Element set:    0143
Inclination:      056.9756 deg
RA of node:       115.3939 deg
Eccentricity:    0.0085323
Arg of perigee:   281.0084 deg
Mean anomaly:     078.1382 deg
Mean motion:   15.48580253 rev/day
Decay rate:      2.106e-05 rev/day^2
Epoch rev:           87283
Checksum:              308

Satellite: PO-34
Catalog number: 25520
Epoch time:      07213.96338297
Element set:    0792
Inclination:      028.4600 deg
RA of node:       162.3683 deg
Eccentricity:    0.0005136
Arg of perigee:   037.5103 deg
Mean anomaly:     322.5849 deg
Mean motion:   15.17028025 rev/day
Decay rate:       3.53e-06 rev/day^2
Epoch rev:           48448
Checksum:              295

Satellite: ISS
Catalog number: 25544
Epoch time:      07214.92047792
Element set:     704
Inclination:      051.6315 deg
RA of node:       222.4484 deg
Eccentricity:    0.0008825
Arg of perigee:   193.9630 deg
Mean anomaly:     239.2762 deg
Mean motion:   15.76032450 rev/day
Decay rate:      8.503e-05 rev/day^2
Epoch rev:           49815
Checksum:              301

Satellite: OO-38
Catalog number: 26063
Epoch time:      07214.78884651
Element set:     974
Inclination:      100.2281 deg
RA of node:       226.0198 deg
Eccentricity:    0.0037310
Arg of perigee:   029.0292 deg
Mean anomaly:     331.2946 deg
Mean motion:   14.35811767 rev/day
Decay rate:       -3.0e-07 rev/day^2
Epoch rev:           39373
Checksum:              300

Satellite: UWE-1
Catalog number: 28892
Epoch time:      07213.52739530
Element set:    0810
Inclination:      098.1264 deg
RA of node:       109.2620 deg
Eccentricity:    0.0017067
Arg of perigee:   335.2705 deg
Mean anomaly:     024.7626 deg
Mean motion:   14.59526235 rev/day
Decay rate:        6.0e-08 rev/day^2
Epoch rev:           09382
Checksum:              291

